Home   Weather   Randaberg   Past weeks

Flag for Norway Past Weather in Randaberg, Norway — Yesterday and Last 2 Weeks

Now
63 °F

Partly sunny.


Feels Like: 63 °F
Forecast: 57 / 62 °F
Wind: 2 mph from Northeast

Location: Stavanger / Sola

Current Time: Jul 23, 2017 at 11:02:19 am

Latest Report: Jul 23, 2017 at 9:00 am


Visibility: 25 mi

Pressure: 30.00 "Hg

Humidity: 70%

Dew Point: 53 °F

Location of RandabergLocation

Past Weather in Randaberg — Graph

°F

Randaberg Temperature Yesterday

Maximum temperature yesterday: 68 °F (at 4:00 pm)
Minimum temperature yesterday: 56 °F (at 12:00 am)
Average temperature yesterday: 61 °F

High & Low Weather Summary for the Past Weeks

 TemperatureHumidityPressure
High77 °F (Jul 20, 4:00 pm)98% (Jul 16, 4:00 am)30.16 "Hg (Jul 16, 4:00 am)
Low48 °F (Jul 19, 5:00 am)32% (Jul 20, 6:00 pm)29.66 "Hg (Jul 11, 12:00 pm)
Average56 °F80%29.91 "Hg
* Reported Jul 8 9:00 am — Jul 23 9:00 am, Randaberg. Weather by CustomWeather, © 2017

Note: Actual official high and low records may vary slightly from our data, if they occured in-between our weather recording intervals... More about our weather records

Advertising

Randaberg Weather History for the Previous 24 Hours

Scroll right to see more
 ConditionsComfort  
Time TempWeatherWind HumidityBarometerVisibility
9:00 am
Sun, Jul 23
63 °FPartly sunny.2 mph70%30.00 "Hg25 mi
8:00 am62 °FPassing clouds.2 mph66%30.00 "Hg28 mi
7:00 am60 °FSunny.1 mph71%30.00 "Hg31 mi
6:00 am58 °FSunny.1 mph78%30.00 "Hg31 mi
2:00 am59 °FPassing clouds.3 mph83%30.05 "Hg28 mi
1:00 am58 °FClear.2 mph86%30.05 "Hg25 mi
12:00 am58 °FPassing clouds.No wind87%30.06 "Hg25 mi
11:00 pm
Sat, Jul 22
59 °FPassing clouds.2 mph86%30.07 "Hg22 mi
10:00 pm59 °FPassing clouds.2 mph86%30.06 "Hg28 mi
9:00 pm60 °FOvercast.3 mph84%30.05 "Hg25 mi
8:00 pm61 °FPassing clouds.2 mph82%30.04 "Hg22 mi
7:00 pm61 °FOvercast.3 mph84%30.04 "Hg25 mi
6:00 pm61 °FOvercast.3 mph84%30.05 "Hg25 mi
5:00 pm62 °FOvercast.3 mph79%30.04 "Hg25 mi
4:00 pm68 °FOvercast.5 mph54%30.04 "Hg28 mi
3:00 pm68 °FPartly sunny.3 mph59%30.05 "Hg22 mi
2:00 pm66 °FPartly sunny.3 mph63%30.05 "Hg28 mi
1:00 pm65 °FOvercast.5 mph64%30.05 "Hg31 mi
12:00 pm65 °FOvercast.6 mph66%30.05 "Hg28 mi
11:00 am64 °FPartly sunny.5 mph67%30.04 "Hg31 mi
Weather by CustomWeather, © 2017

See weather overviewHow to use our weather pages